Overview Statistics Trail Chart Weather Telemetry Raw packets
 

This is the latest recevied weather packets stored in our database for station/object N0HOT. If no packets are shown the sender has not sent any weather packets the latest 10 day(s).

<< 66 67 68 69 70 71 72 >>
Time Temp. Humidity Pressure Rain* Wind** Luminosity Snow
1788191847 27.78° C 66% 1010.5 hPa 0 mm - 334 W/m² -
1788191543 27.78° C 65% 1010.8 hPa 0 mm - 563 W/m² -
1788191239 27.78° C 66% 1010.5 hPa 0 mm - 414 W/m² -
1788190935 27.22° C 67% 1010.5 hPa 0 mm - 211 W/m² -
1788190633 27.22° C 66% 1010.5 hPa 0 mm - 172 W/m² -
1788190329 26.67° C 68% 1010.5 hPa 0 mm - 658 W/m² -
1788190025 26.67° C 70% 1010.5 hPa 0 mm - 178 W/m² -
1788189721 26.11° C 69% 1010.5 hPa 0 mm - 147 W/m² -
1788189420 26.11° C 71% 1010.5 hPa 0 mm - 469 W/m² -
1788189115 26.11° C 72% 1010.5 hPa 0 mm - 119 W/m² -
1788188810 26.11° C 72% 1010.5 hPa 0 mm - 116 W/m² -
1788188505 25.56° C 72% 1010.1 hPa 0 mm - 146 W/m² -
1788188204 25.56° C 71% 1010.1 hPa 0 mm - 159 W/m² -
1788187901 25.56° C 73% 1010.1 hPa 0 mm - 157 W/m² -
1788187597 25.56° C 72% 1010.1 hPa 0 mm - 140 W/m² -
1788187292 25° C 73% 1010.1 hPa 0 mm - 127 W/m² -
1788186991 25° C 73% 1009.8 hPa 0 mm - 106 W/m² -
1788186687 24.44° C 73% 1010.1 hPa 0 mm - 125 W/m² -
1788186384 24.44° C 74% 1010.1 hPa 0 mm - 94 W/m² -
1788186079 24.44° C 75% 1010.1 hPa 0 mm - 88 W/m² -
1788185778 23.89° C 76% 1009.8 hPa 0 mm - 96 W/m² -
1788185473 23.89° C 77% 1009.8 hPa 0 mm - 127 W/m² -
1788185172 23.33° C 77% 1009.4 hPa 0 mm - 96 W/m² -
1788184867 22.78° C 77% 1009.8 hPa 0 mm - 77 W/m² -
1788184565 22.78° C 78% 1009.8 hPa 0 mm - 84 W/m² -

* Rain latest hour (hover to see other rain measurements)
** Current wind speed in m/s (hover to see current wind gust speed)